When you browse on this site, cookies collect data to enhance your experience and personalize the content and advertising you see.
Visit our Privacy Policy to learn more. By continuing to use the site, you agree to this use of cookies and data.

Hourly Weather Oksford

Today, 13 August, Thursday

Time Temperature Precipitation Wind Pressure Humidity
00:00 +22°C° 0.2 mm 1 mps 754 mmHg 82%
01:00 +21°C° 0 mm 2 mps 754 mmHg 83%
02:00 +21°C° 0 mm 2 mps 753 mmHg 85%
03:00 +20°C° 0 mm 3 mps 753 mmHg 87%
04:00 +20°C° 0 mm 3 mps 753 mmHg 87%
05:00 +20°C° 0 mm 3 mps 753 mmHg 87%
06:00 +20°C° 0 mm 3 mps 753 mmHg 87%
07:00 +21°C° 0.3 mm 3 mps 753 mmHg 85%
08:00 +22°C° 0.3 mm 3 mps 753 mmHg 83%
09:00 +22°C° 0.3 mm 3 mps 754 mmHg 81%
10:00 +22°C° 0.6 mm 3 mps 754 mmHg 82%
11:00 +24°C° 0.6 mm 3 mps 754 mmHg 83%
12:00 +24°C° 0.6 mm 3 mps 754 mmHg 83%
13:00 +25°C° 0 mm 3 mps 754 mmHg 79%
14:00 +26°C° 0 mm 3 mps 753 mmHg 75%
15:00 +27°C° 0 mm 3 mps 753 mmHg 71%
16:00 +26°C° 1.4 mm 3 mps 753 mmHg 74%
17:00 +26°C° 1.4 mm 3 mps 753 mmHg 77%
18:00 +25°C° 1.4 mm 3 mps 753 mmHg 80%
19:00 +23°C° 0.7 mm 4 mps 753 mmHg 84%
20:00 +22°C° 0.7 mm 4 mps 753 mmHg 87%
21:00 +21°C° 0.7 mm 4 mps 754 mmHg 91%
22:00 +20°C° 0.5 mm 4 mps 754 mmHg 92%
23:00 +20°C° 0.5 mm 4 mps 754 mmHg 93%

Tomorrow, 14 August, Friday

Time Temperature Precipitation Wind Pressure Humidity
00:00 +19°C° 0.5 mm 4 mps 754 mmHg 94%
01:00 +19°C° 0.4 mm 4 mps 754 mmHg 94%
02:00 +18°C° 0.4 mm 4 mps 753 mmHg 94%
03:00 +18°C° 0.4 mm 4 mps 753 mmHg 94%
04:00 +18°C° 0.2 mm 4 mps 753 mmHg 94%
05:00 +18°C° 0.2 mm 4 mps 754 mmHg 93%
06:00 +18°C° 0.2 mm 4 mps 754 mmHg 93%
07:00 +19°C° 0.5 mm 4 mps 754 mmHg 91%
08:00 +19°C° 0.5 mm 4 mps 754 mmHg 90%
09:00 +19°C° 0.5 mm 4 mps 754 mmHg 88%
10:00 +20°C° 0.4 mm 4 mps 754 mmHg 87%
11:00 +21°C° 0.4 mm 4 mps 754 mmHg 85%
12:00 +21°C° 0.4 mm 3 mps 754 mmHg 84%
13:00 +22°C° 0.1 mm 3 mps 754 mmHg 80%
14:00 +24°C° 0.1 mm 3 mps 754 mmHg 76%
15:00 +25°C° 0.1 mm 3 mps 754 mmHg 72%
16:00 +25°C° 0 mm 3 mps 754 mmHg 73%
17:00 +24°C° 0 mm 3 mps 754 mmHg 74%
18:00 +23°C° 0 mm 4 mps 754 mmHg 76%
19:00 +21°C° 0.1 mm 4 mps 755 mmHg 79%
20:00 +20°C° 0.1 mm 4 mps 755 mmHg 83%
21:00 +18°C° 0.1 mm 4 mps 756 mmHg 86%
22:00 +18°C° 0 mm 4 mps 756 mmHg 88%
23:00 +18°C° 0 mm 4 mps 756 mmHg 90%

Day after tomorrow, 15 August, Saturday

Time Temperature Precipitation Wind Pressure Humidity
00:00 +17°C° 0 mm 4 mps 756 mmHg 92%
01:00 +17°C° 0 mm 4 mps 756 mmHg 93%
02:00 +17°C° 0 mm 4 mps 756 mmHg 94%
03:00 +16°C° 0 mm 3 mps 756 mmHg 95%
04:00 +17°C° 0 mm 4 mps 756 mmHg 94%
05:00 +17°C° 0 mm 4 mps 756 mmHg 92%
06:00 +17°C° 0 mm 4 mps 756 mmHg 91%
07:00 +17°C° 0 mm 4 mps 756 mmHg 89%
08:00 +18°C° 0 mm 4 mps 756 mmHg 86%
09:00 +18°C° 0 mm 4 mps 757 mmHg 84%
10:00 +20°C° 0 mm 4 mps 757 mmHg 77%
11:00 +22°C° 0 mm 3 mps 756 mmHg 71%
12:00 +24°C° 0 mm 3 mps 756 mmHg 64%
13:00 +25°C° 0 mm 3 mps 756 mmHg 61%
14:00 +25°C° 0 mm 3 mps 756 mmHg 58%
15:00 +26°C° 0 mm 3 mps 756 mmHg 55%
16:00 +25°C° 0 mm 3 mps 755 mmHg 61%
17:00 +24°C° 0 mm 3 mps 755 mmHg 66%
18:00 +22°C° 0 mm 4 mps 755 mmHg 72%
19:00 +20°C° 0 mm 4 mps 755 mmHg 77%
20:00 +19°C° 0 mm 4 mps 755 mmHg 82%
21:00 +17°C° 0 mm 4 mps 755 mmHg 87%
22:00 +17°C° 0 mm 3 mps 755 mmHg 89%
23:00 +16°C° 0 mm 3 mps 755 mmHg 92%

16 August, Sunday

Time Temperature Precipitation Wind Pressure Humidity
00:00 +14°C° 0 mm 3 mps 754 mmHg 94%
01:00 +14°C° 0 mm 3 mps 754 mmHg 94%
02:00 +15°C° 0 mm 2 mps 754 mmHg 94%
03:00 +15°C° 0 mm 2 mps 754 mmHg 94%
04:00 +16°C° 0 mm 2 mps 753 mmHg 93%
05:00 +16°C° 0 mm 2 mps 753 mmHg 92%
06:00 +16°C° 0 mm 2 mps 753 mmHg 90%
07:00 +17°C° 0 mm 2 mps 753 mmHg 87%
08:00 +19°C° 0 mm 1 mps 753 mmHg 84%
09:00 +20°C° 0 mm 1 mps 754 mmHg 81%
10:00 +21°C° 0 mm 1 mps 753 mmHg 76%
11:00 +23°C° 0 mm 1 mps 753 mmHg 71%
12:00 +24°C° 0 mm 1 mps 753 mmHg 66%
13:00 +24°C° 0.1 mm 1 mps 753 mmHg 64%
14:00 +25°C° 0.1 mm 1 mps 752 mmHg 61%
15:00 +26°C° 0.1 mm 2 mps 752 mmHg 59%
16:00 +25°C° 1.4 mm 1 mps 752 mmHg 63%
17:00 +24°C° 1.4 mm 1 mps 752 mmHg 68%
18:00 +24°C° 1.4 mm 1 mps 751 mmHg 73%
19:00 +23°C° 1.3 mm 1 mps 751 mmHg 77%
20:00 +21°C° 1.3 mm 1 mps 751 mmHg 81%
21:00 +20°C° 1.3 mm 1 mps 752 mmHg 85%
22:00 +20°C° 0.9 mm 1 mps 751 mmHg 87%
23:00 +19°C° 0.9 mm 1 mps 751 mmHg 89%

17 August, Monday

Time Temperature Precipitation Wind Pressure Humidity
00:00 +19°C° 0.9 mm 1 mps 751 mmHg 91%
01:00 +19°C° 0.5 mm 1 mps 751 mmHg 92%
02:00 +18°C° 0.5 mm 1 mps 751 mmHg 93%
03:00 +18°C° 0.5 mm 1 mps 751 mmHg 94%
04:00 +17°C° 0.4 mm 2 mps 751 mmHg 94%
05:00 +17°C° 0.4 mm 2 mps 751 mmHg 93%
06:00 +17°C° 0.4 mm 2 mps 750 mmHg 92%
07:00 +18°C° 0 mm 2 mps 751 mmHg 88%
08:00 +19°C° 0 mm 3 mps 751 mmHg 83%
09:00 +20°C° 0 mm 3 mps 751 mmHg 79%
10:00 +21°C° 0 mm 3 mps 751 mmHg 73%
11:00 +22°C° 0 mm 3 mps 751 mmHg 67%
12:00 +23°C° 0 mm 4 mps 751 mmHg 61%
13:00 +25°C° 0.1 mm 4 mps 751 mmHg 60%
14:00 +25°C° 0.1 mm 4 mps 751 mmHg 59%
15:00 +25°C° 0.1 mm 4 mps 751 mmHg 58%
16:00 +23°C° 0.5 mm 4 mps 751 mmHg 63%
17:00 +22°C° 0.5 mm 4 mps 751 mmHg 68%
18:00 +21°C° 0.5 mm 4 mps 751 mmHg 73%
19:00 +20°C° 0.1 mm 3 mps 751 mmHg 78%
20:00 +19°C° 0.1 mm 3 mps 751 mmHg 83%
21:00 +17°C° 0.1 mm 3 mps 752 mmHg 89%
22:00 +17°C° 0 mm 3 mps 752 mmHg 89%
23:00 +16°C° 0 mm 3 mps 752 mmHg 89%

18 August, Tuesday

Time Temperature Precipitation Wind Pressure Humidity
00:00 +16°C° 0 mm 3 mps 752 mmHg 89%
01:00 +14°C° 0 mm 3 mps 752 mmHg 89%
02:00 +15°C° 0 mm 2 mps 752 mmHg 89%
03:00 +15°C° 0 mm 2 mps 752 mmHg 89%
04:00 +15°C° 0 mm 2 mps 752 mmHg 90%
05:00 +15°C° 0 mm 2 mps 752 mmHg 91%
06:00 +15°C° 0 mm 2 mps 752 mmHg 92%
07:00 +17°C° 0 mm 3 mps 752 mmHg 86%
08:00 +18°C° 0 mm 3 mps 753 mmHg 80%
09:00 +20°C° 0 mm 4 mps 753 mmHg 74%
10:00 +21°C° 0 mm 4 mps 753 mmHg 70%
11:00 +22°C° 0 mm 5 mps 753 mmHg 66%
12:00 +23°C° 0 mm 5 mps 753 mmHg 61%
13:00 +23°C° 0 mm 5 mps 753 mmHg 60%
14:00 +23°C° 0 mm 5 mps 752 mmHg 59%
15:00 +23°C° 0 mm 5 mps 752 mmHg 58%
16:00 +23°C° 0 mm 4 mps 752 mmHg 62%
17:00 +22°C° 0 mm 4 mps 752 mmHg 66%
18:00 +21°C° 0 mm 3 mps 752 mmHg 69%
19:00 +20°C° 0 mm 3 mps 752 mmHg 73%
20:00 +19°C° 0 mm 2 mps 752 mmHg 77%
21:00 +18°C° 0 mm 2 mps 752 mmHg 81%
22:00 +17°C° 0 mm 2 mps 752 mmHg 84%
23:00 +17°C° 0 mm 2 mps 752 mmHg 87%
Show more